When you browse on this site, cookies collect data to enhance your experience and personalize the content and advertising you see.
Visit our Privacy Policy to learn more. By continuing to use the site, you agree to this use of cookies and data.
  • In Hungary
  • List of Countries
  • For 7 days
  • Water Temperature
  • Satellite Maps
  • Weather Map
  • News
  • Weather Widgets
  • user-avatar
    Login

    Hourly Weather Saklıkent

    Today, 20 February, Wednesday

    Time Temperature Precipitation Wind Pressure Humidity
    00:00 +1°C° 0 mm 1 mps 611 mmHg 65%
    01:00 0°C° 0 mm 1 mps 611 mmHg 65%
    02:00 0°C° 0 mm 1 mps 610 mmHg 63%
    03:00 0°C° 0 mm 1 mps 610 mmHg 63%
    04:00 0°C° 0 mm 1 mps 610 mmHg 62%
    05:00 0°C° 0 mm 1 mps 610 mmHg 62%
    06:00 0°C° 0 mm 1 mps 611 mmHg 60%
    07:00 +1°C° 0 mm 1 mps 611 mmHg 58%
    08:00 +2°C° 0 mm 0 mps 612 mmHg 50%
    09:00 +3°C° 0 mm 1 mps 612 mmHg 49%
    10:00 +4°C° 0 mm 1 mps 612 mmHg 48%
    11:00 +5°C° 0 mm 1 mps 613 mmHg 47%
    12:00 +6°C° 0 mm 1 mps 613 mmHg 47%
    13:00 +6°C° 0 mm 1 mps 613 mmHg 47%
    14:00 +6°C° 0 mm 1 mps 612 mmHg 47%
    15:00 +6°C° 0 mm 1 mps 612 mmHg 52%
    16:00 +5°C° 0 mm 1 mps 612 mmHg 57%
    17:00 +5°C° 0 mm 1 mps 612 mmHg 62%
    18:00 +3°C° 0 mm 1 mps 611 mmHg 69%
    19:00 +2°C° 0 mm 1 mps 611 mmHg 76%
    20:00 0°C° 0 mm 0 mps 611 mmHg 82%
    21:00 0°C° 0 mm 0 mps 611 mmHg 84%
    22:00 0°C° 0 mm 0 mps 611 mmHg 86%
    23:00 0°C° 0 mm 1 mps 611 mmHg 88%

    Tomorrow, 21 February, Thursday

    Time Temperature Precipitation Wind Pressure Humidity
    00:00 0°C° 0 mm 1 mps 611 mmHg 88%
    01:00 0°C° 0 mm 1 mps 611 mmHg 88%
    02:00 0°C° 0 mm 1 mps 610 mmHg 88%
    03:00 0°C° 0 mm 1 mps 610 mmHg 87%
    04:00 0°C° 0 mm 1 mps 610 mmHg 86%
    05:00 0°C° 0 mm 1 mps 610 mmHg 85%
    06:00 0°C° 0 mm 1 mps 611 mmHg 80%
    07:00 +1°C° 0 mm 1 mps 611 mmHg 75%
    08:00 +2°C° 0 mm 1 mps 611 mmHg 70%
    09:00 +3°C° 0 mm 1 mps 612 mmHg 64%
    10:00 +4°C° 0 mm 1 mps 612 mmHg 59%
    11:00 +5°C° 0 mm 1 mps 613 mmHg 53%
    12:00 +6°C° 0.1 mm 1 mps 613 mmHg 52%
    13:00 +6°C° 0.1 mm 1 mps 613 mmHg 51%
    14:00 +6°C° 0.1 mm 1 mps 613 mmHg 50%
    15:00 +6°C° 0.2 mm 1 mps 612 mmHg 53%
    16:00 +5°C° 0.2 mm 1 mps 612 mmHg 57%
    17:00 +5°C° 0.2 mm 1 mps 612 mmHg 61%
    18:00 +4°C° 0 mm 1 mps 612 mmHg 67%
    19:00 +1°C° 0 mm 0 mps 611 mmHg 72%
    20:00 0°C° 0 mm 0 mps 611 mmHg 78%
    21:00 0°C° 0 mm 0 mps 611 mmHg 78%
    22:00 0°C° 0 mm 0 mps 611 mmHg 78%
    23:00 +1°C° 0 mm 1 mps 611 mmHg 78%

    Day after tomorrow, 22 February, Friday

    Time Temperature Precipitation Wind Pressure Humidity
    00:00 0°C° 0 mm 1 mps 611 mmHg 77%
    01:00 0°C° 0 mm 1 mps 611 mmHg 76%
    02:00 0°C° 0 mm 1 mps 611 mmHg 75%
    03:00 0°C° 0 mm 1 mps 611 mmHg 74%
    04:00 0°C° 0 mm 1 mps 610 mmHg 73%
    05:00 0°C° 0 mm 1 mps 610 mmHg 72%
    06:00 +1°C° 0 mm 1 mps 610 mmHg 70%
    07:00 0°C° 0 mm 0 mps 611 mmHg 67%
    08:00 +1°C° 0 mm 0 mps 611 mmHg 64%
    09:00 +3°C° 0 mm 1 mps 611 mmHg 62%
    10:00 +4°C° 0 mm 1 mps 611 mmHg 60%
    11:00 +3°C° 0 mm 2 mps 611 mmHg 57%
    12:00 +3°C° 0.2 mm 2 mps 611 mmHg 59%
    13:00 +3°C° 0.2 mm 2 mps 610 mmHg 61%
    14:00 +4°C° 0.2 mm 2 mps 610 mmHg 63%
    15:00 +3°C° 0.5 mm 2 mps 609 mmHg 68%
    16:00 +2°C° 0.5 mm 2 mps 609 mmHg 72%
    17:00 +2°C° 0.5 mm 2 mps 609 mmHg 77%
    18:00 +2°C° 0.6 mm 1 mps 609 mmHg 80%
    19:00 +2°C° 0.6 mm 1 mps 609 mmHg 84%
    20:00 +1°C° 0.6 mm 1 mps 609 mmHg 87%
    21:00 +1°C° 0.4 mm 1 mps 609 mmHg 89%
    22:00 +1°C° 0.4 mm 1 mps 609 mmHg 90%
    23:00 +1°C° 0.4 mm 1 mps 609 mmHg 91%

    23 February, Saturday

    Time Temperature Precipitation Wind Pressure Humidity
    00:00 +1°C° 0.2 mm 1 mps 609 mmHg 92%
    01:00 +1°C° 0.2 mm 1 mps 608 mmHg 92%
    02:00 0°C° 0.2 mm 1 mps 608 mmHg 92%
    03:00 0°C° 0.1 mm 1 mps 608 mmHg 92%
    04:00 0°C° 0.1 mm 1 mps 608 mmHg 92%
    05:00 0°C° 0.1 mm 1 mps 607 mmHg 92%
    06:00 0°C° 0.2 mm 1 mps 607 mmHg 91%
    07:00 -2°C° 0.2 mm 2 mps 608 mmHg 90%
    08:00 -2°C° 0.2 mm 2 mps 608 mmHg 89%
    09:00 -1°C° 0.2 mm 2 mps 608 mmHg 87%
    10:00 -1°C° 0.2 mm 2 mps 608 mmHg 84%
    11:00 -1°C° 0.2 mm 2 mps 608 mmHg 81%
    12:00 +1°C° 0.2 mm 2 mps 608 mmHg 80%
    13:00 +1°C° 0.2 mm 2 mps 608 mmHg 79%
    14:00 +1°C° 0.2 mm 2 mps 607 mmHg 78%
    15:00 +1°C° 0.3 mm 2 mps 607 mmHg 79%
    16:00 +1°C° 0.3 mm 2 mps 607 mmHg 80%
    17:00 -1°C° 0.3 mm 2 mps 607 mmHg 81%
    18:00 -1°C° 0.8 mm 2 mps 607 mmHg 84%
    19:00 -1°C° 0.8 mm 2 mps 608 mmHg 87%
    20:00 -1°C° 0.8 mm 2 mps 608 mmHg 89%
    21:00 -2°C° 1.5 mm 2 mps 608 mmHg 91%
    22:00 -2°C° 1.5 mm 2 mps 608 mmHg 92%
    23:00 -2°C° 1.5 mm 2 mps 608 mmHg 94%

    24 February, Sunday

    Time Temperature Precipitation Wind Pressure Humidity
    00:00 -2°C° 0.3 mm 2 mps 608 mmHg 94%
    01:00 -2°C° 0.3 mm 2 mps 608 mmHg 94%
    02:00 -2°C° 0.3 mm 2 mps 608 mmHg 94%
    03:00 -2°C° 0.4 mm 2 mps 608 mmHg 94%
    04:00 -2°C° 0.4 mm 2 mps 608 mmHg 93%
    05:00 -2°C° 0.4 mm 2 mps 608 mmHg 93%
    06:00 -2°C° 0.5 mm 2 mps 608 mmHg 93%
    07:00 -2°C° 0.5 mm 2 mps 609 mmHg 93%
    08:00 -2°C° 0.5 mm 2 mps 609 mmHg 94%
    09:00 -2°C° 0.6 mm 2 mps 609 mmHg 92%
    10:00 -1°C° 0.6 mm 2 mps 609 mmHg 91%
    11:00 -1°C° 0.6 mm 2 mps 609 mmHg 90%
    12:00 -1°C° 0.7 mm 2 mps 609 mmHg 89%
    13:00 +1°C° 0.7 mm 2 mps 609 mmHg 88%
    14:00 +1°C° 0.7 mm 2 mps 608 mmHg 87%
    15:00 +1°C° 0.8 mm 2 mps 608 mmHg 88%
    16:00 +1°C° 0.8 mm 2 mps 608 mmHg 89%
    17:00 +1°C° 0.8 mm 2 mps 608 mmHg 89%
    18:00 -1°C° 0.4 mm 2 mps 609 mmHg 90%
    19:00 +1°C° 0.4 mm 1 mps 609 mmHg 90%
    20:00 +1°C° 0.4 mm 1 mps 609 mmHg 91%
    21:00 +1°C° 0.2 mm 1 mps 609 mmHg 90%
    22:00 +1°C° 0.2 mm 1 mps 609 mmHg 89%
    23:00 -1°C° 0.2 mm 2 mps 609 mmHg 89%

    25 February, Monday

    Time Temperature Precipitation Wind Pressure Humidity
    00:00 +1°C° 0 mm 1 mps 608 mmHg 86%
    01:00 0°C° 0 mm 1 mps 608 mmHg 84%
    02:00 0°C° 0 mm 1 mps 607 mmHg 82%
    03:00 0°C° 0 mm 1 mps 607 mmHg 81%
    04:00 0°C° 0 mm 1 mps 607 mmHg 79%
    05:00 0°C° 0 mm 1 mps 606 mmHg 77%
    06:00 -2°C° 0.3 mm 2 mps 606 mmHg 78%
    07:00 -2°C° 0.3 mm 2 mps 606 mmHg 78%
    08:00 -2°C° 0.3 mm 2 mps 606 mmHg 78%
    09:00 -1°C° 0.4 mm 2 mps 605 mmHg 78%
    10:00 -1°C° 0.4 mm 2 mps 605 mmHg 77%
    11:00 +1°C° 0.4 mm 2 mps 605 mmHg 76%
    12:00 +1°C° 0.3 mm 2 mps 604 mmHg 75%
    13:00 +2°C° 0.3 mm 2 mps 604 mmHg 74%
    14:00 +2°C° 0.3 mm 2 mps 603 mmHg 74%
    15:00 +2°C° 0.4 mm 2 mps 603 mmHg 75%
    16:00 +2°C° 0.4 mm 2 mps 603 mmHg 76%
    17:00 +2°C° 0.4 mm 2 mps 602 mmHg 77%
    18:00 +2°C° 0.6 mm 2 mps 602 mmHg 78%
    19:00 +1°C° 0.6 mm 2 mps 602 mmHg 78%
    20:00 +1°C° 0.6 mm 2 mps 602 mmHg 79%
    21:00 -1°C° 0.5 mm 2 mps 601 mmHg 79%
    22:00 +1°C° 0.5 mm 1 mps 601 mmHg 80%
    23:00 +1°C° 0.5 mm 1 mps 601 mmHg 80%
    Show more